Tracking 25612 objects as of 21-May-2022
HD Live streaming from Space Station
objects crossing your sky now

CZ-4C DEB

Track CZ-4C DEB now!
10-day predictions


NORAD ID: 39243
Int'l Code: 2013-046E
Perigee: 873.6 km
Apogee: 1,326.3 km
Inclination: 63.4 °
Period: 107.1 minutes
Semi major axis: 7470 km
RCS: Unknown
Launch date: September 1, 2013
Source: People's Republic of China (PRC)
Launch site: Jiuquan Satellite Launch Center, China (JSC)

Note: This is SATELLITE DEBRIS
aabbcc
Your satellite tracking list
Your tracking list is empty




NASA's NSSDC Master Catalog

Two Line Element Set (TLE):
1 39243U 13046E   22140.27062966  .00000014  00000-0  13596-3 0  9994
2 39243  63.4016 337.0955 0302955   7.9988 352.5713 13.44424835427782
Source of the keplerian elements: AFSPC